This demonstration page uses our WeatherBlox Daily Observations layout. Learn more.

Left ArrowRight Arrow

Hourly Observations for April 19, 2018

Temp ( °F °C ) Dew Point ( °F °C ) Humidity (%) Winds ( mph kmh ) Pressure ( in mb ) Visibility ( mi km ) Precip ( " mm )
12:53 am 00:53 Clear 43 6.1 30 -1.1 60 60 NNE 8 13 30.29 1026 10 16 0.00 0.00
1:53 am 01:53 Clear 41 5 29 -1.7 62 62 NNE 6 9 30.30 1026 10 16 0.00 0.00
2:53 am 02:53 Clear 36 2.2 28 -2.2 73 73 WNW 3 6 30.32 1027 10 16 0.00 0.00
3:53 am 03:53 Clear 32 0 27 -2.8 82 82 W 6 9 30.34 1027 10 16 0.00 0.00
4:53 am 04:53 Clear 35 1.7 28 -2.2 76 76 NW 5 7 30.36 1028 10 16 0.00 0.00
5:53 am 05:53 Clear 34 1.1 28 -2.2 79 79 NW 8 13 30.38 1029 10 16 0.00 0.00
6:53 am 06:53 Sunny 35 1.7 28 -2.2 76 76 NNW 10 17 30.40 1029 10 16 0.00 0.00
7:53 am 07:53 Mostly Sunny 40 4.4 30 -1.1 68 68 N 10 17 30.41 1030 10 16 0.00 0.00
8:53 am 08:53 Mostly Sunny 42 5.6 32 0 68 68 N 14 22 30.44 1031 10 16 0.00 0.00
9:53 am 09:53 Mostly Sunny 46 7.8 31 -0.6 56 56 NNE 16 26 30.45 1031 10 16 0.00 0.00
10:53 am 10:53 Mostly Sunny 49 9.4 29 -1.7 46 46 NNE 16 26 30.46 1031 10 16 0.00 0.00
11:53 am 11:53 Mostly Sunny 52 11.1 29 -1.7 41 41 N 14 22 30.47 1032 10 16 0.00 0.00
12:53 pm 12:53 Mostly Sunny 54 12.2 28 -2.2 37 37 NNE 20 31 30.45 1031 10 16 0.00 0.00
1:53 pm 13:53 Mostly Sunny 57 13.9 28 -2.2 33 33 ENE 14 22 30.42 1030 10 16 0.00 0.00
2:53 pm 14:53 Mostly Sunny 59 15 28 -2.2 31 31 ENE 9 15 30.40 1030 10 16 0.00 0.00
3:53 pm 15:53 Mostly Sunny 60 15.6 28 -2.2 30 30 ENE 8 13 30.38 1029 10 16 0.00 0.00
4:53 pm 16:53 Partly Cloudy 61 16.1 28 -2.2 29 29 NE 9 15 30.34 1028 10 16 0.00 0.00
5:53 pm 17:53 Partly Cloudy 59 15 28 -2.2 31 31 ENE 13 20 30.33 1027 10 16 0.00 0.00
6:53 pm 18:53 Partly Cloudy 58 14.4 28 -2.2 32 32 E 12 19 30.32 1027 10 16 0.00 0.00
7:53 pm 19:53 Partly Cloudy 54 12.2 28 -2.2 37 37 E 9 15 30.32 1027 10 16 0.00 0.00
8:53 pm 20:53 Mostly Clear 51 10.6 28 -2.2 41 41 E 8 13 30.32 1027 10 16 0.00 0.00
9:53 pm 21:53 Mostly Clear 49 9.4 28 -2.2 44 44 E 6 9 30.35 1028 10 16 0.00 0.00
10:53 pm 22:53 Clear 48 8.9 29 -1.7 48 48 ESE 9 15 30.35 1028 10 16 0.00 0.00
11:53 pm 23:53 Clear 47 8.3 29 -1.7 50 50 ESE 9 15 30.34 1027 10 16 0.00 0.00

Powered by Vaisala Xweather